,,Stat6,,Stat2,,Stat8,,Stat9,,Stat10,,Wind1,,Wind1,
time,status,PA1M_AVG,status,PR1M_SUM,status,RH1M_AVG,status,SR1M_AVG,status,TA1M_AVG,status,W1dAve1m,status,W1sAve1m,
2009-08-16, 00:00:00,VALID,917.456,VALID,0,VALID,100,VALID,0.0679233,VALID,19.5311,VALID,144,VALID,0,
2009-08-16, 00:01:00,VALID,917.469,VALID,0,VALID,100,VALID,0.0339617,VALID,19.5014,VALID,129,VALID,0,
2009-08-16, 00:02:00,VALID,917.462,VALID,0,VALID,100,VALID,0.0679233,VALID,19.4822,VALID,139,VALID,0.0104167,
2009-08-16, 00:03:00,VALID,917.454,VALID,0,VALID,100,VALID,0.0849042,VALID,19.4822,VALID,149,VALID,0.0146723,
2009-08-16, 00:04:00,VALID,917.452,VALID,0,VALID,100,VALID,0.0509425,VALID,19.4822,VALID,162,VALID,0,
2009-08-16, 00:05:00,VALID,917.458,VALID,0,VALID,100,VALID,0.0339617,VALID,19.5084,VALID,158,VALID,0,
2009-08-16, 00:06:00,VALID,917.436,VALID,0,VALID,100,VALID,0.0849042,VALID,19.5144,VALID,156,VALID,0,
2009-08-16, 00:07:00,VALID,917.412,VALID,0,VALID,100,VALID,0.0509425,VALID,19.5276,VALID,165,VALID,0,
2009-08-16, 00:08:00,VALID,917.382,VALID,0,VALID,100,VALID,0.0849042,VALID,19.5371,VALID,172,VALID,0,
2009-08-16, 00:09:00,VALID,917.361,VALID,0,VALID,100,VALID,0.101885,VALID,19.5498,VALID,172,VALID,0,
2009-08-16, 00:10:00,VALID,917.354,VALID,0,VALID,100,VALID,0.0849042,VALID,19.5501,VALID,172,VALID,0,
2009-08-16, 00:11:00,VALID,917.34,VALID,0,VALID,100,VALID,0.101885,VALID,19.5466,VALID,172,VALID,0,
2009-08-16, 00:12:00,VALID,917.335,VALID,0,VALID,100,VALID,0,VALID,19.5575,VALID,172,VALID,0,
2009-08-16, 00:13:00,VALID,917.317,VALID,0,VALID,100,VALID,-0.101885,VALID,19.5688,VALID,172,VALID,0,
2009-08-16, 00:14:00,VALID,917.3,VALID,0,VALID,100,VALID,-0.135847,VALID,19.5822,VALID,177,VALID,0,
2009-08-16, 00:15:00,VALID,917.286,VALID,0,VALID,100,VALID,-0.118866,VALID,19.582,VALID,177,VALID,0,
2009-08-16, 00:16:00,VALID,917.293,VALID,0,VALID,100,VALID,-0.118866,VALID,19.5985,VALID,177,VALID,0,
2009-08-16, 00:17:00,VALID,917.31,VALID,0,VALID,100,VALID,-0.101885,VALID,19.6179,VALID,177,VALID,0,
2009-08-16, 00:18:00,VALID,917.316,VALID,0,VALID,100,VALID,-0.118866,VALID,19.6014,VALID,177,VALID,0,
2009-08-16, 00:19:00,VALID,917.313,VALID,0,VALID,100,VALID,-0.152827,VALID,19.5822,VALID,177,VALID,0,
2009-08-16, 00:20:00,VALID,917.306,VALID,0,VALID,100,VALID,-0.118866,VALID,19.5563,VALID,177,VALID,0,
2009-08-16, 00:21:00,VALID,917.294,VALID,0,VALID,100,VALID,-0.118866,VALID,19.5336,VALID,177,VALID,0,
2009-08-16, 00:22:00,VALID,917.285,VALID,0,VALID,100,VALID,-0.101885,VALID,19.543,VALID,177,VALID,0,
2009-08-16, 00:23:00,VALID,917.257,VALID,0,VALID,100,VALID,-0.118866,VALID,19.5465,VALID,177,VALID,0,
2009-08-16, 00:24:00,VALID,917.25,VALID,0,VALID,100,VALID,-0.118866,VALID,19.553,VALID,177,VALID,0,
2009-08-16, 00:25:00,VALID,917.216,VALID,0,VALID,100,VALID,-0.118866,VALID,19.566,VALID,177,VALID,0,
2009-08-16, 00:26:00,VALID,917.201,VALID,0,VALID,100,VALID,-0.135847,VALID,19.5787,VALID,177,VALID,0,
2009-08-16, 00:27:00,VALID,917.191,VALID,0.2,VALID,100,VALID,-0.0679233,VALID,19.5166,VALID,177,VALID,0,
2009-08-16, 00:28:00,VALID,917.162,VALID,0,VALID,100,VALID,-0.0509425,VALID,19.4802,VALID,177,VALID,0,
2009-08-16, 00:29:00,VALID,917.148,VALID,0,VALID,100,VALID,-0.0849042,VALID,19.5193,VALID,177,VALID,0,
2009-08-16, 00:30:00,VALID,917.108,VALID,0,VALID,100,VALID,0,VALID,19.5451,VALID,177,VALID,0,
2009-08-16, 00:31:00,VALID,917.092,VALID,0,VALID,100,VALID,-0.0509425,VALID,19.5715,VALID,177,VALID,0,
2009-08-16, 00:32:00,VALID,917.056,VALID,0,VALID,100,VALID,-0.0509425,VALID,19.5583,VALID,177,VALID,0,
2009-08-16, 00:33:01,VALID,917.032,VALID,0,VALID,100,VALID,-0.0339617,VALID,19.5129,VALID,177,VALID,0,
2009-08-16, 00:34:01,VALID,917.011,VALID,0,VALID,100,VALID,-0.0679233,VALID,19.4285,VALID,146,VALID,0,
2009-08-16, 00:35:00,VALID,916.992,VALID,0,VALID,100,VALID,-0.0509425,VALID,19.4839,VALID,132,VALID,0,
2009-08-16, 00:36:01,VALID,916.975,VALID,0,VALID,100,VALID,-0.0849042,VALID,19.5193,VALID,132,VALID,0,
2009-08-16, 00:37:00,VALID,916.975,VALID,0,VALID,100,VALID,-0.0509425,VALID,19.4799,VALID,132,VALID,0,
2009-08-16, 00:38:00,VALID,916.988,VALID,0,VALID,100,VALID,-0.0509425,VALID,19.5031,VALID,132,VALID,0,
2009-08-16, 00:39:00,VALID,916.991,VALID,0,VALID,100,VALID,-0.0339617,VALID,19.4802,VALID,112,VALID,0,
2009-08-16, 00:40:00,VALID,917.007,VALID,0,VALID,100,VALID,-0.101885,VALID,19.3147,VALID,83,VALID,0,
2009-08-16, 00:41:01,VALID,917.017,VALID,0,VALID,100,VALID,-0.0509425,VALID,19.2825,VALID,85,VALID,0,
2009-08-16, 00:42:00,VALID,917.014,VALID,0,VALID,100,VALID,-0.0339617,VALID,19.2141,VALID,86,VALID,0,
2009-08-16, 00:43:01,VALID,917.036,VALID,0,VALID,100,VALID,-0.0339617,VALID,19.1852,VALID,86,VALID,0,
2009-08-16, 00:44:00,VALID,917.065,VALID,0,VALID,100,VALID,-0.0339617,VALID,19.1557,VALID,85,VALID,0,
2009-08-16, 00:45:00,VALID,917.065,VALID,0,VALID,100,VALID,-0.0339617,VALID,19.123,VALID,85,VALID,0,
2009-08-16, 00:46:00,VALID,917.067,VALID,0,VALID,100,VALID,-0.0339617,VALID,19.1427,VALID,85,VALID,0,
2009-08-16, 00:47:00,VALID,917.072,VALID,0,VALID,100,VALID,-0.0509425,VALID,19.1492,VALID,85,VALID,0,
2009-08-16, 00:48:01,VALID,917.076,VALID,0,VALID,100,VALID,-0.0339617,VALID,19.1427,VALID,85,VALID,0,
2009-08-16, 00:49:00,VALID,917.079,VALID,0,VALID,100,VALID,-0.0679233,VALID,19.1198,VALID,85,VALID,0,
2009-08-16, 00:50:01,VALID,917.068,VALID,0,VALID,100,VALID,-0.0169808,VALID,19.1265,VALID,85,VALID,0,
2009-08-16, 00:51:01,VALID,917.049,VALID,0,VALID,100,VALID,-0.0339617,VALID,19.1525,VALID,85,VALID,0,
2009-08-16, 00:52:01,VALID,917.028,VALID,0,VALID,100,VALID,-0.0339617,VALID,19.2041,VALID,85,VALID,0,
2009-08-16, 00:53:01,VALID,917.032,VALID,0,VALID,100,VALID,-0.0509425,VALID,19.2466,VALID,85,VALID,0,
2009-08-16, 00:54:01,VALID,917.049,VALID,0,VALID,100,VALID,-0.0339617,VALID,19.2333,VALID,85,VALID,0,
2009-08-16, 00:55:00,VALID,917.045,VALID,0,VALID,100,VALID,-0.0509425,VALID,19.2141,VALID,129,VALID,0,
2009-08-16, 00:56:00,VALID,917.055,VALID,0,VALID,100,VALID,-0.0509425,VALID,19.1689,VALID,171,VALID,0,
2009-08-16, 00:57:00,VALID,917.048,VALID,0,VALID,100,VALID,0.0169808,VALID,19.1096,VALID,171,VALID,0,
2009-08-16, 00:58:00,VALID,917.042,VALID,0,VALID,100,VALID,0.0679233,VALID,19.0599,VALID,164,VALID,0,
2009-08-16, 00:59:00,VALID,917.015,VALID,0,VALID,100,VALID,0.0849042,VALID,19.0956,VALID,166,VALID,0,
2009-08-16, 01:00:00,VALID,916.998,VALID,0,VALID,100,VALID,0.101885,VALID,19.1962,VALID,168,VALID,0,
2009-08-16, 01:01:00,VALID,916.956,VALID,0,VALID,100,VALID,0.101885,VALID,19.2219,VALID,168,VALID,0,
2009-08-16, 01:02:00,VALID,916.936,VALID,0,VALID,100,VALID,0.0679233,VALID,19.2094,VALID,168,VALID,0,
2009-08-16, 01:03:00,VALID,916.926,VALID,0,VALID,100,VALID,0.0339617,VALID,19.2416,VALID,168,VALID,0,
2009-08-16, 01:04:01,VALID,916.897,VALID,0,VALID,100,VALID,0.0679233,VALID,19.2938,VALID,168,VALID,0,
2009-08-16, 01:05:00,VALID,916.892,VALID,0,VALID,100,VALID,0.0339617,VALID,19.2513,VALID,168,VALID,0,
2009-08-16, 01:06:00,VALID,916.889,VALID,0,VALID,100,VALID,0.0679233,VALID,19.1832,VALID,168,VALID,0,
2009-08-16, 01:07:01,VALID,916.888,VALID,0,VALID,100,VALID,0.101885,VALID,19.1702,VALID,176,VALID,0,
2009-08-16, 01:08:00,VALID,916.882,VALID,0,VALID,100,VALID,0.101885,VALID,19.177,VALID,177,VALID,0,
2009-08-16, 01:09:00,VALID,916.877,VALID,0,VALID,100,VALID,0.0679233,VALID,19.1897,VALID,177,VALID,0,
2009-08-16, 01:10:01,VALID,916.886,VALID,0,VALID,100,VALID,0.0679233,VALID,19.1473,VALID,177,VALID,0,
2009-08-16, 01:11:00,VALID,916.88,VALID,0,VALID,100,VALID,0.101885,VALID,19.1011,VALID,177,VALID,0,
2009-08-16, 01:12:00,VALID,916.879,VALID,0,VALID,100,VALID,0.0509425,VALID,19.1126,VALID,177,VALID,0,
2009-08-16, 01:13:00,VALID,916.861,VALID,0,VALID,100,VALID,-0.0169808,VALID,19.0873,VALID,177,VALID,0,
2009-08-16, 01:14:00,VALID,916.853,VALID,0,VALID,100,VALID,-0.0339617,VALID,19.0839,VALID,177,VALID,0,
2009-08-16, 01:15:01,VALID,916.832,VALID,0,VALID,100,VALID,-0.0169808,VALID,19.0714,VALID,177,VALID,0,
2009-08-16, 01:16:00,VALID,916.821,VALID,0,VALID,100,VALID,-0.0339617,VALID,19.0292,VALID,177,VALID,0,
2009-08-16, 01:17:00,VALID,916.811,VALID,0,VALID,100,VALID,-0.0509425,VALID,19,VALID,177,VALID,0,
2009-08-16, 01:18:01,VALID,916.802,VALID,0,VALID,100,VALID,-0.0339617,VALID,19.0519,VALID,156,VALID,0,
2009-08-16, 01:19:01,VALID,916.793,VALID,0,VALID,100,VALID,-0.0339617,VALID,19.1427,VALID,150,VALID,0,
2009-08-16, 01:20:01,VALID,916.801,VALID,0,VALID,100,VALID,0,VALID,19.1622,VALID,158,VALID,0.0453506,
2009-08-16, 01:21:01,VALID,916.782,VALID,0,VALID,100,VALID,-0.0339617,VALID,19.1652,VALID,151,VALID,0.00241815,
2009-08-16, 01:22:01,VALID,916.781,VALID,0,VALID,100,VALID,-0.0679233,VALID,19.1135,VALID,134,VALID,0.00121528,
2009-08-16, 01:23:01,VALID,916.768,VALID,0,VALID,100,VALID,-0.0679233,VALID,19.0813,VALID,138,VALID,0,
2009-08-16, 01:24:01,VALID,916.746,VALID,0,VALID,100,VALID,-0.0509425,VALID,19.0581,VALID,154,VALID,0,
2009-08-16, 01:25:01,VALID,916.747,VALID,0,VALID,100,VALID,-0.0679233,VALID,19.0911,VALID,148,VALID,0,
2009-08-16, 01:26:01,VALID,916.745,VALID,0,VALID,100,VALID,-0.0169808,VALID,19.0651,VALID,157,VALID,0,
2009-08-16, 01:27:01,VALID,916.752,VALID,0,VALID,100,VALID,0,VALID,19.0644,VALID,147,VALID,0,
2009-08-16, 01:28:01,VALID,916.727,VALID,0,VALID,100,VALID,0,VALID,19.0908,VALID,154,VALID,0,
2009-08-16, 01:29:01,VALID,916.723,VALID,0,VALID,100,VALID,-0.0169808,VALID,19.1325,VALID,157,VALID,0,
2009-08-16, 01:30:00,VALID,916.706,VALID,0,VALID,100,VALID,-0.0509425,VALID,19.1907,VALID,160,VALID,0,
2009-08-16, 01:31:00,VALID,916.69,VALID,0,VALID,100,VALID,-0.0169808,VALID,19.2526,VALID,162,VALID,0,
2009-08-16, 01:32:00,VALID,916.668,VALID,0,VALID,100,VALID,-0.0339617,VALID,19.304,VALID,163,VALID,0,
2009-08-16, 01:33:00,VALID,916.641,VALID,0,VALID,100,VALID,0,VALID,19.3466,VALID,149,VALID,0,
2009-08-16, 01:34:00,VALID,916.602,VALID,0,VALID,100,VALID,0,VALID,19.3596,VALID,149,VALID,0,
2009-08-16, 01:35:00,VALID,916.585,VALID,0,VALID,100,VALID,0,VALID,19.3821,VALID,149,VALID,0,
2009-08-16, 01:36:00,VALID,916.569,VALID,0,VALID,100,VALID,-0.0339617,VALID,19.3893,VALID,149,VALID,0,
2009-08-16, 01:37:00,VALID,916.544,VALID,0,VALID,100,VALID,0,VALID,19.3823,VALID,149,VALID,0,
2009-08-16, 01:38:00,VALID,916.529,VALID,0,VALID,100,VALID,-0.0339617,VALID,19.4016,VALID,149,VALID,0,
2009-08-16, 01:39:00,VALID,916.531,VALID,0,VALID,100,VALID,0,VALID,19.421,VALID,149,VALID,0,
2009-08-16, 01:40:00,VALID,916.518,VALID,0,VALID,100,VALID,-0.0169808,VALID,19.4567,VALID,149,VALID,0,
2009-08-16, 01:41:00,VALID,916.528,VALID,0,VALID,100,VALID,0,VALID,19.4248,VALID,149,VALID,0,
2009-08-16, 01:42:00,VALID,916.527,VALID,0,VALID,100,VALID,-0.0509425,VALID,19.4188,VALID,149,VALID,0,
2009-08-16, 01:43:00,VALID,916.513,VALID,0,VALID,100,VALID,-0.0339617,VALID,19.4213,VALID,149,VALID,0,
2009-08-16, 01:44:00,VALID,916.497,VALID,0,VALID,100,VALID,-0.0339617,VALID,19.3791,VALID,149,VALID,0,
2009-08-16, 01:45:00,VALID,916.483,VALID,0,VALID,100,VALID,0,VALID,19.3267,VALID,149,VALID,0,
2009-08-16, 01:46:00,VALID,916.458,VALID,0,VALID,100,VALID,0.0169808,VALID,19.285,VALID,152,VALID,0,
2009-08-16, 01:47:00,VALID,916.448,VALID,0,VALID,100,VALID,-0.0339617,VALID,19.2129,VALID,152,VALID,0,
2009-08-16, 01:48:00,VALID,916.423,VALID,0,VALID,100,VALID,-0.0509425,VALID,19.1036,VALID,166,VALID,0,
2009-08-16, 01:49:00,VALID,916.417,VALID,0,VALID,100,VALID,-0.0169808,VALID,19.0357,VALID,174,VALID,0,
2009-08-16, 01:50:00,VALID,916.398,VALID,0,VALID,100,VALID,-0.0169808,VALID,19.0192,VALID,171,VALID,0,
2009-08-16, 01:51:00,VALID,916.397,VALID,0,VALID,100,VALID,0,VALID,19.0317,VALID,171,VALID,0,
2009-08-16, 01:52:00,VALID,916.373,VALID,0,VALID,100,VALID,-0.0169808,VALID,19.0931,VALID,154,VALID,0,
2009-08-16, 01:53:00,VALID,916.35,VALID,0,VALID,100,VALID,-0.0169808,VALID,19.0771,VALID,158,VALID,0,
2009-08-16, 01:54:00,VALID,916.342,VALID,0,VALID,100,VALID,0.0169808,VALID,19.0994,VALID,156,VALID,0,
2009-08-16, 01:55:00,VALID,916.319,VALID,0,VALID,100,VALID,0.0169808,VALID,19.1093,VALID,144,VALID,0,
2009-08-16, 01:56:00,VALID,916.292,VALID,0,VALID,100,VALID,0,VALID,19.0936,VALID,157,VALID,0.0137195,
2009-08-16, 01:57:00,VALID,916.275,VALID,0,VALID,100,VALID,-0.0169808,VALID,19.0672,VALID,141,VALID,0.0505087,
2009-08-16, 01:58:00,VALID,916.266,VALID,0,VALID,100,VALID,-0.0339617,VALID,19.0514,VALID,133,VALID,0,
2009-08-16, 01:59:00,VALID,916.243,VALID,0,VALID,100,VALID,-0.0169808,VALID,19.0672,VALID,153,VALID,0.0753472,
2009-08-16, 02:00:00,VALID,916.244,VALID,0,VALID,100,VALID,-0.0339617,VALID,19.0609,VALID,144,VALID,0.0387074,
2009-08-16, 02:01:00,VALID,916.235,VALID,0,VALID,100,VALID,0,VALID,19.0382,VALID,136,VALID,0,
2009-08-16, 02:02:00,VALID,916.23,VALID,0,VALID,100,VALID,-0.0169808,VALID,18.9955,VALID,134,VALID,0,
2009-08-16, 02:03:00,VALID,916.221,VALID,0,VALID,100,VALID,-0.0169808,VALID,19.0289,VALID,134,VALID,0,
2009-08-16, 02:04:00,VALID,916.219,VALID,0,VALID,100,VALID,-0.0339617,VALID,19.0222,VALID,154,VALID,0,
2009-08-16, 02:05:00,VALID,916.215,VALID,0,VALID,100,VALID,0,VALID,19.0289,VALID,164,VALID,0,
2009-08-16, 02:06:00,VALID,916.211,VALID,0,VALID,100,VALID,-0.0169808,VALID,19.0384,VALID,158,VALID,0,
2009-08-16, 02:07:00,VALID,916.202,VALID,0,VALID,100,VALID,-0.0169808,VALID,19.0122,VALID,166,VALID,0,
2009-08-16, 02:08:00,VALID,916.183,VALID,0,VALID,100,VALID,0,VALID,18.9965,VALID,169,VALID,0,
2009-08-16, 02:09:00,VALID,916.15,VALID,0,VALID,100,VALID,0,VALID,18.9868,VALID,166,VALID,0.0570313,
2009-08-16, 02:10:00,VALID,916.134,VALID,0,VALID,100,VALID,-0.0339617,VALID,18.9728,VALID,158,VALID,0.15696,
2009-08-16, 02:11:00,VALID,916.125,VALID,0,VALID,100,VALID,-0.0169808,VALID,18.9668,VALID,165,VALID,0.0024858,
2009-08-16, 02:12:00,VALID,916.121,VALID,0,VALID,100,VALID,0,VALID,18.9668,VALID,152,VALID,0.0530134,
2009-08-16, 02:13:00,VALID,916.118,VALID,0,VALID,100,VALID,-0.0169808,VALID,18.9409,VALID,151,VALID,0.171875,
2009-08-16, 02:14:00,VALID,916.123,VALID,0,VALID,100,VALID,0,VALID,18.9474,VALID,146,VALID,0.155107,
2009-08-16, 02:15:00,VALID,916.104,VALID,0,VALID,100,VALID,0,VALID,18.9277,VALID,152,VALID,0.0124628,
2009-08-16, 02:16:00,VALID,916.093,VALID,0,VALID,100,VALID,-0.0169808,VALID,18.9374,VALID,140,VALID,0.109193,
2009-08-16, 02:17:00,VALID,916.088,VALID,0,VALID,100,VALID,0,VALID,18.9471,VALID,130,VALID,0.00111607,
2009-08-16, 02:18:00,VALID,916.067,VALID,0,VALID,100,VALID,0,VALID,18.9307,VALID,123,VALID,0.0945122,
2009-08-16, 02:19:00,VALID,916.032,VALID,0,VALID,100,VALID,0,VALID,18.9344,VALID,127,VALID,0.00109012,
2009-08-16, 02:20:00,VALID,916.015,VALID,0,VALID,100,VALID,-0.0169808,VALID,18.9309,VALID,117,VALID,0.00342988,
2009-08-16, 02:21:00,VALID,915.989,VALID,0,VALID,100,VALID,0,VALID,18.9441,VALID,126,VALID,0,
2009-08-16, 02:22:00,VALID,915.966,VALID,0,VALID,100,VALID,0,VALID,18.908,VALID,136,VALID,0,
2009-08-16, 02:23:00,VALID,915.957,VALID,0,VALID,100,VALID,0,VALID,18.9184,VALID,113,VALID,0,
2009-08-16, 02:24:00,VALID,915.94,VALID,0,VALID,100,VALID,-0.0169808,VALID,18.9509,VALID,131,VALID,0,
2009-08-16, 02:25:00,VALID,915.951,VALID,0,VALID,100,VALID,-0.0509425,VALID,18.9838,VALID,124,VALID,0,
2009-08-16, 02:26:00,VALID,915.95,VALID,0,VALID,100,VALID,0,VALID,18.9474,VALID,108,VALID,0.00114329,
2009-08-16, 02:27:00,VALID,915.971,VALID,0,VALID,100,VALID,-0.0509425,VALID,18.8994,VALID,100,VALID,0.0961682,
2009-08-16, 02:28:00,VALID,915.965,VALID,0,VALID,100,VALID,-0.101885,VALID,18.9198,VALID,104,VALID,0.00372869,
2009-08-16, 02:29:00,VALID,915.96,VALID,0,VALID,100,VALID,-0.135847,VALID,18.956,VALID,134,VALID,0,
2009-08-16, 02:30:00,VALID,915.962,VALID,0,VALID,100,VALID,-0.101885,VALID,18.9393,VALID,143,VALID,0,
2009-08-16, 02:31:00,VALID,915.942,VALID,0,VALID,100,VALID,-0.101885,VALID,18.9743,VALID,134,VALID,0,
2009-08-16, 02:32:00,VALID,915.926,VALID,0,VALID,100,VALID,-0.118866,VALID,18.965,VALID,132,VALID,0,
2009-08-16, 02:33:00,VALID,915.91,VALID,0,VALID,100,VALID,-0.0849042,VALID,18.9358,VALID,137,VALID,0,
2009-08-16, 02:34:00,VALID,915.897,VALID,0,VALID,100,VALID,-0.118866,VALID,18.9328,VALID,145,VALID,0,
2009-08-16, 02:35:00,VALID,915.892,VALID,0,VALID,100,VALID,-0.118866,VALID,18.9555,VALID,141,VALID,0,
2009-08-16, 02:36:00,VALID,915.885,VALID,0,VALID,100,VALID,-0.101885,VALID,18.9331,VALID,130,VALID,0,
2009-08-16, 02:37:00,VALID,915.884,VALID,0,VALID,100,VALID,-0.101885,VALID,18.9388,VALID,114,VALID,0,
2009-08-16, 02:38:00,VALID,915.864,VALID,0,VALID,100,VALID,-0.101885,VALID,18.9263,VALID,105,VALID,0,
2009-08-16, 02:39:00,VALID,915.844,VALID,0,VALID,100,VALID,-0.101885,VALID,18.8837,VALID,126,VALID,0,
2009-08-16, 02:40:00,VALID,915.83,VALID,0,VALID,100,VALID,-0.118866,VALID,18.8542,VALID,135,VALID,0,
2009-08-16, 02:41:00,VALID,915.81,VALID,0,VALID,100,VALID,-0.118866,VALID,18.8709,VALID,146,VALID,0,
2009-08-16, 02:42:00,VALID,915.791,VALID,0,VALID,100,VALID,-0.0679233,VALID,18.857,VALID,145,VALID,0,
2009-08-16, 02:43:00,VALID,915.771,VALID,0,VALID,100,VALID,0,VALID,18.9179,VALID,180,VALID,0,
2009-08-16, 02:44:00,VALID,915.739,VALID,0,VALID,100,VALID,0,VALID,18.9534,VALID,180,VALID,0,
2009-08-16, 02:45:00,VALID,915.735,VALID,0,VALID,100,VALID,-0.0169808,VALID,18.9504,VALID,180,VALID,0,
2009-08-16, 02:46:00,VALID,915.725,VALID,0,VALID,100,VALID,0,VALID,18.9504,VALID,180,VALID,0,
2009-08-16, 02:47:00,VALID,915.729,VALID,0,VALID,100,VALID,0,VALID,18.9436,VALID,180,VALID,0,
2009-08-16, 02:48:00,VALID,915.733,VALID,0,VALID,100,VALID,-0.0509425,VALID,18.9349,VALID,180,VALID,0,
2009-08-16, 02:49:00,VALID,915.741,VALID,0,VALID,100,VALID,-0.0509425,VALID,18.9149,VALID,180,VALID,0,
2009-08-16, 02:50:00,VALID,915.742,VALID,0,VALID,100,VALID,-0.0339617,VALID,18.9054,VALID,180,VALID,0,
2009-08-16, 02:51:00,VALID,915.756,VALID,0,VALID,100,VALID,0.0169808,VALID,18.8955,VALID,180,VALID,0,
2009-08-16, 02:52:00,VALID,915.761,VALID,0,VALID,100,VALID,-0.0339617,VALID,18.8927,VALID,180,VALID,0,
2009-08-16, 02:53:00,VALID,915.76,VALID,0,VALID,100,VALID,-0.0339617,VALID,18.8832,VALID,182,VALID,0,
2009-08-16, 02:54:00,VALID,915.748,VALID,0,VALID,100,VALID,-0.0509425,VALID,18.8598,VALID,194,VALID,0,
2009-08-16, 02:55:00,VALID,915.748,VALID,0,VALID,100,VALID,-0.0509425,VALID,18.87,VALID,194,VALID,0,
2009-08-16, 02:56:00,VALID,915.733,VALID,0,VALID,100,VALID,0,VALID,18.8855,VALID,194,VALID,0,
2009-08-16, 02:57:00,VALID,915.732,VALID,0,VALID,100,VALID,-0.0509425,VALID,18.9092,VALID,194,VALID,0,
2009-08-16, 02:58:00,VALID,915.708,VALID,0,VALID,100,VALID,-0.118866,VALID,18.9131,VALID,194,VALID,0,
2009-08-16, 02:59:00,VALID,915.697,VALID,0,VALID,100,VALID,-0.118866,VALID,18.9198,VALID,195,VALID,0,
2009-08-16, 03:00:00,VALID,915.655,VALID,0,VALID,100,VALID,-0.135847,VALID,18.9226,VALID,195,VALID,0,
2009-08-16, 03:01:00,VALID,915.651,VALID,0,VALID,100,VALID,-0.118866,VALID,18.9263,VALID,195,VALID,0,
2009-08-16, 03:02:00,VALID,915.648,VALID,0,VALID,100,VALID,-0.135847,VALID,18.9004,VALID,195,VALID,0,
2009-08-16, 03:03:00,VALID,915.642,VALID,0,VALID,100,VALID,-0.118866,VALID,18.842,VALID,195,VALID,0,
2009-08-16, 03:04:00,VALID,915.637,VALID,0,VALID,100,VALID,-0.135847,VALID,18.8063,VALID,195,VALID,0,
2009-08-16, 03:05:00,VALID,915.641,VALID,0,VALID,100,VALID,-0.135847,VALID,18.7933,VALID,194,VALID,0,
2009-08-16, 03:06:00,VALID,915.66,VALID,0,VALID,100,VALID,-0.101885,VALID,18.7639,VALID,160,VALID,0,
2009-08-16, 03:07:00,VALID,915.658,VALID,0,VALID,100,VALID,-0.135847,VALID,18.8125,VALID,156,VALID,0,
2009-08-16, 03:08:00,VALID,915.668,VALID,0,VALID,100,VALID,-0.118866,VALID,18.8939,VALID,159,VALID,0,
2009-08-16, 03:09:00,VALID,915.66,VALID,0,VALID,100,VALID,-0.118866,VALID,18.9356,VALID,154,VALID,0,
2009-08-16, 03:10:00,VALID,915.661,VALID,0,VALID,100,VALID,-0.152827,VALID,18.9618,VALID,157,VALID,0,
2009-08-16, 03:11:00,VALID,915.649,VALID,0,VALID,100,VALID,-0.101885,VALID,18.981,VALID,155,VALID,0,
2009-08-16, 03:12:00,VALID,915.637,VALID,0,VALID,100,VALID,-0.0679233,VALID,18.9031,VALID,132,VALID,0,
2009-08-16, 03:13:00,VALID,915.632,VALID,0,VALID,100,VALID,0,VALID,18.8241,VALID,123,VALID,0,
2009-08-16, 03:14:00,VALID,915.625,VALID,0,VALID,100,VALID,0,VALID,18.775,VALID,112,VALID,0,
2009-08-16, 03:15:00,VALID,915.633,VALID,0,VALID,100,VALID,0,VALID,18.749,VALID,124,VALID,0,
2009-08-16, 03:16:00,VALID,915.61,VALID,0,VALID,100,VALID,-0.0169808,VALID,18.7495,VALID,148,VALID,0,
2009-08-16, 03:17:00,VALID,915.606,VALID,0,VALID,100,VALID,-0.0339617,VALID,18.7173,VALID,144,VALID,0,
2009-08-16, 03:18:00,VALID,915.592,VALID,0,VALID,100,VALID,-0.0169808,VALID,18.6786,VALID,127,VALID,0,
2009-08-16, 03:19:00,VALID,915.597,VALID,0,VALID,100,VALID,0,VALID,18.6322,VALID,124,VALID,0,
2009-08-16, 03:20:00,VALID,915.591,VALID,0,VALID,100,VALID,0.0169808,VALID,18.6068,VALID,120,VALID,0,
2009-08-16, 03:21:00,VALID,915.586,VALID,0,VALID,100,VALID,0,VALID,18.6195,VALID,124,VALID,0,
2009-08-16, 03:22:00,VALID,915.575,VALID,0,VALID,100,VALID,-0.0339617,VALID,18.6362,VALID,129,VALID,0,
2009-08-16, 03:23:00,VALID,915.57,VALID,0,VALID,100,VALID,-0.0169808,VALID,18.6232,VALID,127,VALID,0,
2009-08-16, 03:24:00,VALID,915.566,VALID,0,VALID,100,VALID,0.0169808,VALID,18.5873,VALID,127,VALID,0,
2009-08-16, 03:25:00,VALID,915.569,VALID,0,VALID,100,VALID,-0.0339617,VALID,18.5359,VALID,127,VALID,0,
2009-08-16, 03:26:00,VALID,915.557,VALID,0,VALID,100,VALID,-0.0169808,VALID,18.503,VALID,127,VALID,0,
2009-08-16, 03:27:00,VALID,915.555,VALID,0,VALID,100,VALID,0,VALID,18.5023,VALID,127,VALID,0,
2009-08-16, 03:28:00,VALID,915.558,VALID,0,VALID,100,VALID,0,VALID,18.509,VALID,127,VALID,0,
2009-08-16, 03:29:00,VALID,915.57,VALID,0,VALID,100,VALID,0,VALID,18.5347,VALID,127,VALID,0,
2009-08-16, 03:30:00,VALID,915.575,VALID,0,VALID,100,VALID,0,VALID,18.5845,VALID,127,VALID,0,
2009-08-16, 03:31:00,VALID,915.586,VALID,0,VALID,100,VALID,-0.0169808,VALID,18.6387,VALID,139,VALID,0,
2009-08-16, 03:32:00,VALID,915.588,VALID,0,VALID,100,VALID,0,VALID,18.6751,VALID,156,VALID,0,
2009-08-16, 03:33:00,VALID,915.569,VALID,0,VALID,100,VALID,0,VALID,18.6846,VALID,152,VALID,0,
2009-08-16, 03:34:00,VALID,915.581,VALID,0,VALID,100,VALID,-0.0169808,VALID,18.6846,VALID,146,VALID,0,
2009-08-16, 03:35:00,VALID,915.583,VALID,0,VALID,100,VALID,0,VALID,18.5963,VALID,146,VALID,0,
2009-08-16, 03:36:00,VALID,915.591,VALID,0,VALID,100,VALID,0,VALID,18.5739,VALID,134,VALID,0,
2009-08-16, 03:37:00,VALID,915.594,VALID,0,VALID,100,VALID,0.0169808,VALID,18.626,VALID,128,VALID,0,
2009-08-16, 03:38:00,VALID,915.619,VALID,0,VALID,100,VALID,0,VALID,18.639,VALID,124,VALID,0,
2009-08-16, 03:39:00,VALID,915.616,VALID,0,VALID,100,VALID,0.0169808,VALID,18.6779,VALID,119,VALID,0,
2009-08-16, 03:40:00,VALID,915.614,VALID,0,VALID,100,VALID,0.0169808,VALID,18.6904,VALID,116,VALID,0,
2009-08-16, 03:41:00,VALID,915.608,VALID,0,VALID,100,VALID,0,VALID,18.7133,VALID,107,VALID,0.0523256,
2009-08-16, 03:42:00,VALID,915.597,VALID,0,VALID,100,VALID,0,VALID,18.7138,VALID,108,VALID,0.00272529,
2009-08-16, 03:43:00,VALID,915.586,VALID,0,VALID,100,VALID,0,VALID,18.7458,VALID,114,VALID,0.130952,
2009-08-16, 03:44:00,VALID,915.553,VALID,0,VALID,100,VALID,-0.0169808,VALID,18.7849,VALID,111,VALID,0,
2009-08-16, 03:45:00,VALID,915.528,VALID,0,VALID,100,VALID,0.0169808,VALID,18.8132,VALID,102,VALID,0,
2009-08-16, 03:46:00,VALID,915.496,VALID,0,VALID,100,VALID,0.0509425,VALID,18.8269,VALID,97,VALID,0,
2009-08-16, 03:47:00,VALID,915.483,VALID,0,VALID,100,VALID,0.0169808,VALID,18.7912,VALID,110,VALID,0,
2009-08-16, 03:48:00,VALID,915.474,VALID,0,VALID,100,VALID,-0.0169808,VALID,18.7912,VALID,109,VALID,0.161014,
2009-08-16, 03:49:00,VALID,915.466,VALID,0,VALID,100,VALID,0.0339617,VALID,18.7974,VALID,124,VALID,0.372275,
2009-08-16, 03:50:00,VALID,915.465,VALID,0,VALID,100,VALID,0.0169808,VALID,18.8039,VALID,130,VALID,0.388579,
2009-08-16, 03:51:00,VALID,915.463,VALID,0,VALID,100,VALID,0.0169808,VALID,18.7845,VALID,140,VALID,0.404433,